JLY1207 SBBE-SBIZ

Flight info

Callsign JLY1207
Flight time N/A
Altitude 30000
Route ILSAT Z84 ARVIB DCT ILVAV
Aircraft B738/M-SDFGIKRWY/LB1

Departure

Time 2026-04-27 00:04
Airport Val de Cans/Júlio Cezar Ribeiro International Airport (SBBE)

Arrival

Time N/A
Airport Prefeito Renato Moreira Airport (SBIZ)
Time Latitude Longitude Altitude Speed Heading
2026-04-26 23:33 -1.39050 -48.47886 60 ft 0 kts 275°
2026-04-26 23:56 -1.39051 -48.47877 60 ft 2 kts 275°
2026-04-26 23:56 -1.39052 -48.47861 60 ft 2 kts 275°
2026-04-26 23:56 -1.39053 -48.47847 60 ft 2 kts 274°
2026-04-26 23:57 -1.39058 -48.47832 60 ft 2 kts 313°
2026-04-26 23:57 -1.39070 -48.47824 60 ft 2 kts 345°
2026-04-26 23:57 -1.39080 -48.47823 60 ft 1 kts
2026-04-26 23:57 -1.39086 -48.47824 60 ft 0 kts
2026-04-26 23:59 -1.39085 -48.47824 60 ft 0 kts
2026-04-27 00:00 -1.39069 -48.47822 60 ft 4 kts
2026-04-27 00:00 -1.39022 -48.47818 60 ft 9 kts
2026-04-27 00:00 -1.38937 -48.47811 60 ft 14 kts
2026-04-27 00:00 -1.38821 -48.47800 60 ft 17 kts
2026-04-27 00:01 -1.38713 -48.47790 60 ft 13 kts
2026-04-27 00:01 -1.38667 -48.47850 60 ft 12 kts 270°
2026-04-27 00:01 -1.38669 -48.47948 60 ft 15 kts 269°
2026-04-27 00:01 -1.38671 -48.48072 60 ft 19 kts 269°
2026-04-27 00:02 -1.38680 -48.48204 60 ft 18 kts 247°
2026-04-27 00:02 -1.38764 -48.48300 60 ft 18 kts 225°
2026-04-27 00:02 -1.38818 -48.48382 60 ft 12 kts 259°
2026-04-27 00:02 -1.38809 -48.48464 60 ft 8 kts 310°
2026-04-27 00:03 -1.38776 -48.48461 60 ft 4 kts 36°
2026-04-27 00:03 -1.38751 -48.48439 60 ft 6 kts 44°
2026-04-27 00:03 -1.38587 -48.48274 60 ft 66 kts 45°
2026-04-27 00:03 -1.38121 -48.47803 60 ft 122 kts 46°
2026-04-27 00:04 -1.37407 -48.47082 163 ft 156 kts 46°
2026-04-27 00:04 -1.36679 -48.46337 750 ft 153 kts 45°
2026-04-27 00:04 -1.35919 -48.45579 1271 ft 157 kts 45°
2026-04-27 00:04 -1.35285 -48.44707 1808 ft 159 kts 70°
2026-04-27 00:05 -1.35150 -48.43597 2266 ft 166 kts 95°
2026-04-27 00:05 -1.35516 -48.42507 2752 ft 173 kts 120°
2026-04-27 00:05 -1.36437 -48.41641 3042 ft 194 kts 150°
2026-04-27 00:05 -1.37812 -48.41400 3351 ft 216 kts 186°
2026-04-27 00:06 -1.39339 -48.41710 3745 ft 231 kts 188°
2026-04-27 00:06 -1.41001 -48.41882 4120 ft 247 kts 179°
2026-04-27 00:06 -1.42771 -48.41806 4571 ft 260 kts 172°
2026-04-27 00:06 -1.44602 -48.41596 5068 ft 271 kts 171°
2026-04-27 00:07 -1.46484 -48.41341 5741 ft 274 kts 170°
2026-04-27 00:07 -1.48385 -48.41080 6456 ft 277 kts 170°
2026-04-27 00:07 -1.50332 -48.40820 7139 ft 282 kts 171°
2026-04-27 00:07 -1.52275 -48.40567 7808 ft 287 kts 171°
2026-04-27 00:08 -1.54272 -48.40308 8486 ft 292 kts 171°
2026-04-27 00:08 -1.56299 -48.40046 9134 ft 297 kts 170°
2026-04-27 00:08 -1.58389 -48.39774 9813 ft 302 kts 170°
2026-04-27 00:08 -1.60469 -48.39507 10537 ft 306 kts 171°
2026-04-27 00:09 -1.62624 -48.39223 11172 ft 314 kts 170°
2026-04-27 00:09 -1.64783 -48.38886 11887 ft 318 kts 168°
2026-04-27 00:09 -1.66968 -48.38499 12647 ft 320 kts 167°
2026-04-27 00:09 -1.69149 -48.38100 13408 ft 321 kts 167°
2026-04-27 00:10 -1.71383 -48.37695 14134 ft 325 kts 168°
2026-04-27 00:10 -1.73586 -48.37304 14861 ft 327 kts 168°
2026-04-27 00:10 -1.75858 -48.36906 15526 ft 332 kts 168°
2026-04-27 00:10 -1.78141 -48.36510 16173 ft 336 kts 168°
2026-04-27 00:11 -1.80453 -48.36109 16838 ft 339 kts 168°
2026-04-27 00:11 -1.82794 -48.35687 17482 ft 342 kts 168°
2026-04-27 00:11 -1.85158 -48.35243 18107 ft 346 kts 168°
2026-04-27 00:11 -1.87538 -48.34789 18677 ft 351 kts 167°
2026-04-27 00:12 -1.89938 -48.34329 19230 ft 356 kts 167°
2026-04-27 00:12 -1.92401 -48.33859 19797 ft 360 kts 167°
2026-04-27 00:12 -1.94873 -48.33390 20376 ft 364 kts 166°
2026-04-27 00:12 -1.97389 -48.32914 20893 ft 369 kts 166°
2026-04-27 00:13 -1.99933 -48.32432 21436 ft 373 kts 166°
2026-04-27 00:13 -2.02478 -48.31950 21907 ft 378 kts 166°
2026-04-27 00:13 -2.05077 -48.31432 22410 ft 382 kts 164°
2026-04-27 00:13 -2.07679 -48.30825 22970 ft 383 kts 162°
2026-04-27 00:14 -2.10288 -48.30165 23540 ft 384 kts 162°
2026-04-27 00:14 -2.12887 -48.29492 24086 ft 386 kts 162°
2026-04-27 00:14 -2.15470 -48.28825 24577 ft 389 kts 162°
2026-04-27 00:14 -2.18125 -48.28146 25095 ft 391 kts 162°
2026-04-27 00:15 -2.20769 -48.27475 25573 ft 394 kts 163°
2026-04-27 00:15 -2.23421 -48.26808 26093 ft 395 kts 163°
2026-04-27 00:15 -2.26127 -48.26130 26538 ft 398 kts 163°
2026-04-27 00:15 -2.28835 -48.25454 27013 ft 400 kts 163°
2026-04-27 00:16 -2.31537 -48.24779 27429 ft 403 kts 163°
2026-04-27 00:16 -2.34251 -48.24103 27872 ft 404 kts 163°
2026-04-27 00:16 -2.37008 -48.23416 27940 ft 410 kts 163°
2026-04-27 00:16 -2.39799 -48.22722 27941 ft 406 kts 163°
2026-04-27 00:17 -2.42543 -48.22040 27943 ft 405 kts 163°
2026-04-27 00:17 -2.45296 -48.21355 27941 ft 406 kts 163°
2026-04-27 00:17 -2.48006 -48.20680 27943 ft 406 kts 163°
2026-04-27 00:17 -2.50780 -48.19990 27943 ft 406 kts 163°
2026-04-27 00:18 -2.53509 -48.19311 27944 ft 406 kts 163°
2026-04-27 00:18 -2.56283 -48.18620 27945 ft 405 kts 163°
2026-04-27 00:18 -2.59027 -48.17937 27950 ft 406 kts 163°
2026-04-27 00:18 -2.61768 -48.17254 27951 ft 405 kts 163°
2026-04-27 00:19 -2.64515 -48.16569 27952 ft 405 kts 163°
2026-04-27 00:19 -2.67258 -48.15885 27951 ft 406 kts 163°
2026-04-27 00:19 -2.69994 -48.15203 27951 ft 405 kts 163°
2026-04-27 00:19 -2.72724 -48.14523 27952 ft 405 kts 163°
2026-04-27 00:20 -2.75480 -48.13836 27951 ft 406 kts 163°
2026-04-27 00:20 -2.78249 -48.13146 27952 ft 406 kts 163°